KUIPER-00055

导读

KUIPER-00055是美国亚马逊“柯伊伯计划”的量产互联网卫星,于2025年6月23日由联合发射联盟从佛罗里达州卡纳维拉尔角太空军基地发射升空,属于该项目第二批发射的27颗卫星之一。它将被部署在近地轨道,旨在为全球提供高速宽带互联网接入服务,是亚马逊布局卫星互联网、和SpaceX星链竞争的重要组成部分。

Basic Information
目录编号:
64515
目录名称:
KUIPER-00055
国际标识:
2025-134R
轨道中心:
EARTH
卫星名称:
KUIPER-00055
卫星全名:
KUIPER-00055
卫星状态:
在轨 (已飞行445 天)
发射日期:
2025-06-23 UTC
国别 :
美国 (US)
星等 :
--
This satellite is enrolled in the Space Conjunction Data Service (SCDS) and the current flight risk assessment level is: No High Risk
Orbit Information
数据来源 国际轨道数据
星历时间: 2026-09-11T00:41:47+0800
1天前
查看轨道信息
半长轴: 7007.689km
偏心率: 0.0000698
轨道倾角: 51.902°
近地点辐角 105.353°
升交点赤经 72.591°
平近点角 254.751°
近地点: 629.062km
远地点: 630.042km
周期: 97.302分钟
每日圈数: 14.799279
Detailed Information
使用方式:
暂无
2D Orbit Map
3D Orbit Map
Orbit Altitude Analysis Chart
Orbit Inclination Analysis Chart
Orbit Comprehensive Analysis Chart
View Comprehensive Chart
Conjunction Data List
Event ID Objects TCA Miss Dist (km) Collision Risk Probability Collision Risk Index (CRI) Action
CDM_260912-050503-332006-451522
HJ-1A (33320)
2026-09-12T
05:05:27+0000
1.133 km
极远距离
1.735441E-5 中风险 0.6
CDM_260912-212905-775706-451521
BB4 (57757)
2026-09-12T
21:29:35+0000
1.647 km
极远距离
4.701006E-6 低风险 0.48
CDM_260913-004606-157106-451522
2026-09-13T
00:46:39+0000
1.714 km
极远距离
4.314562E-6 低风险 0.48
CDM_260912-235706-157106-451522
2026-09-12T
23:57:59+0000
2.529 km
极远距离
1.690727E-6 低风险 0.4
Miss Distance Evolution Trend with All Objects
Collision Probability Evolution Trend with All Objects